Montrose, CO

8:21 AM MDT on July 28, 2017 (GMT -0600)
Montrose Regional

Weather History for KMTJ - December, 2012

Change the Weather History Date:

Wednesday, December 12, 2012

  Actual Average Record
Temperature  
Mean Temperature 31 °F 27 °F  
Max Temperature 48 °F 38 °F 55 °F (2014)
Min Temperature 14 °F 16 °F -1 °F (2013)
Degree Days  
Heating Degree Days 34 38  
Month to date heating degree days 349 436  
Since 1 July heating degree days 1491 1857  
Cooling Degree Days 0 0  
Month to date cooling degree days 0 0  
Year to date cooling degree days 906 643  
Moisture  
Dew Point 16 °F    
Average Humidity 57    
Maximum Humidity 80    
Minimum Humidity 34    
Precipitation  
Precipitation 0.00 in 0.02 in 0.16 in (2015)
Month to date precipitation 0.03 0.26  
Year to date precipitation 5.51 10.91  
Sea Level Pressure  
Sea Level Pressure 30.02 in    
Wind  
Wind Speed 6 mph (SE)    
Max Wind Speed 21 mph    
Max Gust Speed 24 mph    
Visibility 10 miles    
Events      
T = Trace of Precipitation, MM = Missing Value Source: NWS Daily Summary

Daily Weather History Graph

Daily Weather History Graph

Search for Another Location

Airport or City:

Trip Planner

Search our weather history database for the weather conditions in past years. The results will help you decide how hot, cold, wet, or windy it might be!

Date:

Astronomy

Dec. 12, 2012 Rise Set
Actual Time 7:20 AM MST 4:51 PM MST
Civil Twilight 6:50 AM MST 5:20 PM MST
Nautical Twilight 6:17 AM MST 5:53 PM MST
Astronomical Twilight 5:44 AM MST 6:26 PM MST
Moon 6:28 AM MST (12/12) 4:31 PM MST (12/12)
Length of Visible Light 10h 30m
Length of Day
9h 30m
Waning Crescent, 0% of the Moon is Illuminated
Dec 12
Waning Crescent
Dec 13
New
Dec 19
First Quarter
Dec 28
Full
Jan 4
Last Quarter

Hourly Weather History & Observations

Time (MST) Temp. Windchill Dew Point Humidity Pressure Visibility Wind Dir Wind Speed Gust Speed Precip Events Conditions
12:53 AM 19.9 °F 12.1 °F 12.0 °F 71% 30.09 in 10.0 mi South 5.8 mph - N/A   Clear
1:53 AM 18.0 °F 7.7 °F 10.9 °F 74% 30.08 in 10.0 mi South 8.1 mph - N/A   Clear
2:53 AM 18.0 °F 9.8 °F 12.0 °F 78% 30.06 in 10.0 mi SE 5.8 mph - N/A   Clear
3:53 AM 18.0 °F 9.8 °F 12.0 °F 78% 30.03 in 10.0 mi SSE 5.8 mph - N/A   Clear
4:53 AM 17.1 °F - 12.0 °F 81% 30.06 in 10.0 mi Calm Calm - N/A   Clear
5:53 AM 15.1 °F 5.2 °F 10.9 °F 84% 30.08 in 10.0 mi SE 6.9 mph - N/A   Clear
6:53 AM 19.0 °F 9.0 °F 10.9 °F 71% 30.10 in 10.0 mi SSE 8.1 mph - N/A   Clear
7:53 AM 19.0 °F 11.1 °F 12.0 °F 74% 30.10 in 10.0 mi ESE 5.8 mph - N/A   Clear
8:53 AM 25.0 °F - 12.9 °F 60% 30.09 in 10.0 mi Calm Calm - N/A   Clear
9:53 AM 28.9 °F - 16.0 °F 58% 30.08 in 10.0 mi Calm Calm - N/A   Clear
10:18 AM 30.2 °F 20.2 °F 14.0 °F 51% 30.02 in 10.0 mi East 12.7 mph 24.2 mph N/A   Clear
10:53 AM 33.1 °F 22.2 °F 15.1 °F 48% 30.04 in 10.0 mi East 17.3 mph 21.9 mph N/A   Clear
11:53 AM 37.9 °F 31.5 °F 17.1 °F 43% 29.99 in 10.0 mi ENE 9.2 mph - N/A   Clear
12:53 PM 39.0 °F 32.3 °F 18.0 °F 43% 29.98 in 10.0 mi East 10.4 mph - N/A   Clear
1:53 PM 43.0 °F - 19.9 °F 40% 29.96 in 10.0 mi Calm Calm - N/A   Clear
2:53 PM 46.0 °F 43.9 °F 19.9 °F 35% 29.94 in 10.0 mi North 4.6 mph - N/A   Clear
3:53 PM 43.0 °F - 21.9 °F 43% 29.94 in 10.0 mi Calm Calm - N/A   Clear
4:53 PM 39.9 °F 35.1 °F 19.9 °F 45% 29.96 in 10.0 mi SSE 6.9 mph - N/A   Clear
5:53 PM 35.1 °F 30.1 °F 21.0 °F 57% 30.01 in 10.0 mi South 5.8 mph - N/A   Clear
6:53 PM 35.1 °F 31.0 °F 19.9 °F 54% 30.01 in 10.0 mi SW 4.6 mph - N/A   Clear
7:53 PM 36.0 °F 29.0 °F 19.0 °F 50% 30.00 in 10.0 mi SE 9.2 mph - N/A   Clear
8:53 PM 37.0 °F 29.3 °F 18.0 °F 46% 29.99 in 10.0 mi ESE 11.5 mph - N/A   Clear
9:53 PM 41.0 °F 38.0 °F 15.1 °F 35% 29.96 in 10.0 mi Variable 4.6 mph - N/A   Clear
10:53 PM 37.0 °F 34.5 °F 16.0 °F 42% 29.97 in 10.0 mi NW 3.5 mph - N/A   Clear
11:53 PM 37.9 °F 32.7 °F 15.1 °F 39% 29.95 in 10.0 mi East 6.9 mph - N/A   Clear